Home   Weather   Vadsø   Past weeks

Flag for Norway Past Weather in Vadsø, Norway — Yesterday and Last 2 Weeks

Now
32 °F

Passing clouds.


Feels Like: 23 °F
Forecast: 29 / 34 °F
Wind: 12 mph from Northeast

Location: Vadso

Current Time: Apr 26, 2017 at 2:18:00 pm

Latest Report: Apr 26, 2017 at 12:50 pm


Visibility: N/A

Pressure: 29.83 "Hg

Humidity: 80%

Dew Point: 27 °F

Location of VadsøLocation

Past Weather in Vadsø — Graph

°F

Vadsø Temperature Yesterday

Maximum temperature yesterday: 34 °F (at 1:50 pm)
Minimum temperature yesterday: 16 °F (at 12:50 am)
Average temperature yesterday: 26 °F

High & Low Weather Summary for the Past Weeks

 TemperatureHumidityPressure
High39 °F (Apr 20, 12:50 pm)100% (Apr 11, 10:50 pm)30.27 "Hg (Apr 11, 10:50 pm)
Low14 °F (Apr 23, 9:50 pm)56% (Apr 20, 2:50 pm)29.18 "Hg (Apr 21, 5:50 am)
Average28 °F77%29.80 "Hg
* Reported Apr 11 12:50 pm — Apr 26 12:50 pm, Vadsø, Weather by CustomWeather, © 2017

Note: Actual official high and low records may vary slightly from our data, if they occured in-between our weather recording intervals... More about our weather records

Advertising

Vadsø Weather History for the Previous 24 Hours

Scroll right to see more
 ConditionsComfort  
Time TempWeatherWind HumidityBarometerVisibility
12:50 pm
Wed, Apr 26
32 °FPassing clouds.12 mph80%29.83 "HgN/A
11:50 am30 °FPassing clouds.12 mph80%29.83 "HgN/A
10:50 am30 °FPassing clouds.12 mph80%29.86 "HgN/A
9:50 am28 °FScattered clouds.9 mph80%29.86 "HgN/A
8:50 am23 °FScattered clouds.9 mph80%29.86 "HgN/A
7:50 am23 °FScattered clouds.9 mph80%29.86 "HgN/A
6:50 am21 °FPassing clouds.12 mph86%29.86 "HgN/A
5:50 am19 °FPassing clouds.7 mph79%29.86 "HgN/A
4:50 am16 °FPassing clouds.7 mph86%29.89 "HgN/A
4:20 am18 °FPassing clouds.7 mph86%29.89 "HgN/A
11:50 pm
Tue, Apr 25
18 °FClear.7 mph86%29.92 "Hg10 mi
10:50 pm18 °FClear.7 mph79%29.92 "Hg10 mi
9:50 pm18 °FClear.5 mph79%29.92 "Hg10 mi
8:50 pm19 °FClear.5 mph86%29.92 "Hg10 mi
7:50 pm23 °FClear.8 mph80%29.92 "Hg10 mi
6:50 pm25 °FSunny.8 mph80%29.92 "Hg10 mi
5:50 pm28 °FSunny.6 mph69%29.92 "Hg10 mi
4:50 pm34 °FSunny.8 mph60%29.89 "Hg10 mi
3:50 pm34 °FSunny.8 mph60%29.89 "Hg10 mi
2:50 pm34 °FSunny.8 mph65%29.89 "Hg10 mi
Weather by CustomWeather, © 2017

See weather overviewHow to use our weather pages